CZ-2C R/B (40306 NORAD) Tracking and Keplerian Element Data

This shows tracking and keplerian element data for the satellite.

Feedback or suggestion? Click here.




ElementValue
Catalog40306
NameCZ-2C R/B
Epoch Orbit40323
Epoch Day16.16006674
Epoch Year2022
RAAN343.9401
Inclination97.4014
Eccentricity0.0011458
Argument of Perigee206.5504
Mean Anonmoly153.5164
Mean Motion15.52451749
Decay Rate0.00020482
L11 40306U 14071B 22016.16006674 .00020482 00000+0 33537-3 0 9996
L22 40306 97.4014 343.9401 0011458 206.5504 153.5164 15.52451749403235

Live tracking and technical data element details for CZ-2C R/B (NORAD 40306). CZ-2C R/B can be tracked NOW for your location showing map with azimuth and elevation plus other details from your city location.

Track the satellite on the map from your city or location and see movement details for azimuth, elevation, latitude, longitude, range, height, and movement on the map or in text.







IsCatalogInMostPopularTable: catalog: 40306, numindb: 95
Update: records affected: 1



GetName: 40306 CZ-2C R/B

Hit Count: updated at: Mon, 17 Jan 2022 00:20:58 GMT